{"data":{"norad_id":62926,"intl_designator":"2025-027V","name":"STARLINK-32922","alt_names":[],"object_type":"PAYLOAD","status":"ACTIVE","operator":null,"country":"US","launch_date":"2025-02-08","launch_site_code":"AFETR","launch_vehicle":null,"mission":null,"orbit_class":"UNKNOWN","rcs_meters":null,"size_class":null,"mass_kg":null,"dimensions":null,"purposes":["comms"],"wikipedia_slug":null,"has_3d_model":false,"image_url":null,"decayed_at":null,"tle_current":{"epoch":"2026-05-24T22:49:09.488928Z","epoch_age_seconds":82587,"freshness":"FRESH","line1":"1 62926U 25027V   26144.95080427  .00020886  00000+0  76598-3 0  9994","line2":"2 62926  43.0059  58.3393 0001491 240.2243 119.8461 15.27596004 73202","mean_motion":15.27596004,"eccentricity":0.0001491,"inclination_deg":43.0059,"raan_deg":58.3393,"arg_perigee_deg":240.2243,"mean_anomaly_deg":119.8461,"bstar":0.00076598,"rev_number":7320,"period_min":94.265761119391,"perigee_km":481.97817902277,"apogee_km":484.02417042648,"semimajor_km":6861.1381747246,"source":"CELESTRAK","updated_at":"2026-05-25T13:38:19.823437Z"}}}